YMA7608 UAAA-UTTT

Flight info

Callsign YMA7608
Flight time N/A
Altitude 32000
Route UAAA EKLAT Z370 AGLEK Z817 TAR N143 KOLAM Z580 BAMUT UTTT
Aircraft B738/M-VGDW/C

Departure

Time 2026-05-05 09:10
Airport Almaty International Airport (UAAA)

Arrival

Time N/A
Airport UTTT
Time Latitude Longitude Altitude Speed Heading
2026-05-05 07:19 43.34842 77.02123 2214 ft 0 kts 184°
2026-05-05 09:05 43.34828 77.02121 2214 ft 7 kts 184°
2026-05-05 09:05 43.34788 77.02165 2215 ft 9 kts 95°
2026-05-05 09:05 43.34783 77.02260 2217 ft 8 kts 94°
2026-05-05 09:05 43.34781 77.02330 2218 ft 5 kts 92°
2026-05-05 09:06 43.34779 77.02383 2218 ft 6 kts 93°
2026-05-05 09:06 43.34775 77.02439 2218 ft 5 kts 95°
2026-05-05 09:06 43.34772 77.02490 2218 ft 6 kts 94°
2026-05-05 09:06 43.34770 77.02571 2218 ft 9 kts 90°
2026-05-05 09:07 43.34773 77.02660 2218 ft 8 kts 85°
2026-05-05 09:07 43.34778 77.02732 2219 ft 6 kts 86°
2026-05-05 09:07 43.34780 77.02800 2219 ft 7 kts 90°
2026-05-05 09:07 43.34781 77.02871 2219 ft 7 kts 88°
2026-05-05 09:08 43.34777 77.02929 2220 ft 4 kts 111°
2026-05-05 09:08 43.34763 77.02956 2220 ft 3 kts 130°
2026-05-05 09:08 43.34746 77.02988 2221 ft 5 kts 107°
2026-05-05 09:08 43.34753 77.03016 2221 ft 0 kts 57°
2026-05-05 09:09 43.34754 77.03018 2221 ft 3 kts 57°
2026-05-05 09:09 43.34949 77.03406 2219 ft 99 kts 55°
2026-05-05 09:09 43.35508 77.04529 2285 ft 176 kts 55°
2026-05-05 09:10 43.36237 77.05770 3286 ft 156 kts 45°
2026-05-05 09:10 43.36991 77.07067 3768 ft 191 kts 55°
2026-05-05 09:10 43.37791 77.08706 4354 ft 225 kts 56°
2026-05-05 09:10 43.38683 77.10535 4931 ft 233 kts 55°
2026-05-05 09:11 43.39591 77.12362 5456 ft 231 kts 55°
2026-05-05 09:11 43.40492 77.14185 5998 ft 232 kts 54°
2026-05-05 09:11 43.41556 77.15850 6531 ft 234 kts 36°
2026-05-05 09:11 43.43062 77.16619 7079 ft 237 kts
2026-05-05 09:12 43.44667 77.16138 7651 ft 249 kts 338°
2026-05-05 09:12 43.46318 77.15146 8342 ft 274 kts 337°
2026-05-05 09:12 43.48134 77.14045 8974 ft 292 kts 337°
2026-05-05 09:12 43.50014 77.12858 8986 ft 295 kts 336°
2026-05-05 09:13 43.51830 77.11691 8968 ft 287 kts 336°
2026-05-05 09:13 43.53577 77.10346 9193 ft 283 kts 314°
2026-05-05 09:13 43.54495 77.07967 9928 ft 293 kts 281°
2026-05-05 09:13 43.54615 77.05104 10727 ft 310 kts 271°
2026-05-05 09:14 43.54650 77.02058 11494 ft 335 kts 271°
2026-05-05 09:14 43.54688 76.98755 12190 ft 359 kts 270°
2026-05-05 09:14 43.54528 76.95243 12871 ft 371 kts 255°
2026-05-05 09:14 43.54158 76.93839 13205 ft 371 kts 243°
2026-05-05 09:15 43.52833 76.91013 13862 ft 373 kts 235°
2026-05-05 09:15 43.51361 76.88086 14486 ft 376 kts 234°
2026-05-05 09:15 43.49855 76.85111 15060 ft 379 kts 234°
2026-05-05 09:15 43.48352 76.82140 15617 ft 381 kts 234°
2026-05-05 09:16 43.46842 76.79163 16271 ft 385 kts 234°
2026-05-05 09:16 43.45309 76.76131 16758 ft 392 kts 234°
2026-05-05 09:16 43.43732 76.73019 17287 ft 393 kts 235°
2026-05-05 09:16 43.42199 76.69929 17689 ft 395 kts 235°
2026-05-05 09:17 43.40647 76.66793 18443 ft 399 kts 235°
2026-05-05 09:17 43.39085 76.63648 18901 ft 401 kts 235°
2026-05-05 09:17 43.37532 76.60470 19445 ft 402 kts 236°
2026-05-05 09:17 43.35954 76.57325 20021 ft 405 kts 236°
2026-05-05 09:18 43.34330 76.54112 20555 ft 406 kts 236°
2026-05-05 09:18 43.32729 76.50961 21083 ft 410 kts 236°
2026-05-05 09:18 43.31119 76.47727 21550 ft 410 kts 237°
2026-05-05 09:18 43.29509 76.44486 22056 ft 413 kts 237°
2026-05-05 09:19 43.27939 76.41151 22513 ft 416 kts 245°
2026-05-05 09:19 43.27251 76.37734 22962 ft 414 kts 266°
2026-05-05 09:19 43.27222 76.36617 23087 ft 414 kts 271°
2026-05-05 09:19 43.27282 76.32662 23554 ft 418 kts 272°
2026-05-05 09:20 43.27357 76.28674 24014 ft 418 kts 272°
2026-05-05 09:20 43.27409 76.24668 24417 ft 422 kts 271°
2026-05-05 09:20 43.27434 76.20663 24888 ft 423 kts 271°
2026-05-05 09:20 43.27462 76.16626 25322 ft 424 kts 271°
2026-05-05 09:21 43.27475 76.12595 25775 ft 425 kts 270°
2026-05-05 09:21 43.27459 76.08518 26211 ft 428 kts 270°
2026-05-05 09:21 43.27444 76.04410 26587 ft 432 kts 270°
2026-05-05 09:21 43.27542 76.00359 26998 ft 430 kts 281°
2026-05-05 09:22 43.28363 75.96394 27445 ft 432 kts 287°
2026-05-05 09:22 43.29246 75.92459 27854 ft 435 kts 287°
2026-05-05 09:22 43.30156 75.88455 28228 ft 439 kts 287°
2026-05-05 09:22 43.31065 75.84469 28631 ft 440 kts 287°
2026-05-05 09:23 43.31937 75.80433 29033 ft 443 kts 287°
2026-05-05 09:23 43.32811 75.76351 29406 ft 447 kts 287°
2026-05-05 09:23 43.33695 75.72252 29810 ft 450 kts 287°
2026-05-05 09:23 43.34595 75.68130 30195 ft 452 kts 287°
2026-05-05 09:24 43.35480 75.63990 30571 ft 454 kts 285°
2026-05-05 09:24 43.36336 75.59854 30947 ft 456 kts 286°
2026-05-05 09:24 43.37217 75.55675 31306 ft 460 kts 287°
2026-05-05 09:24 43.38085 75.51427 31685 ft 461 kts 284°
2026-05-05 09:25 43.38905 75.47188 32048 ft 464 kts 285°
2026-05-05 09:25 43.40495 75.38571 32121 ft 462 kts 284°
2026-05-05 09:26 43.42044 75.30037 32111 ft 463 kts 283°
2026-05-05 09:26 43.43615 75.21483 32103 ft 463 kts 283°
2026-05-05 09:27 43.45190 75.12927 32092 ft 462 kts 283°
2026-05-05 09:27 43.46760 75.04359 32101 ft 462 kts 284°
2026-05-05 09:28 43.48330 74.95835 32101 ft 461 kts 283°
2026-05-05 09:28 43.49916 74.87254 32101 ft 463 kts 283°
2026-05-05 09:29 43.51209 74.78659 32070 ft 462 kts 270°
2026-05-05 09:29 43.50704 74.74328 32137 ft 461 kts 255°
2026-05-05 09:29 43.49887 74.70039 32121 ft 464 kts 255°
2026-05-05 09:30 43.48303 74.61410 32106 ft 463 kts 256°
2026-05-05 09:30 43.46822 74.52829 32088 ft 463 kts 257°
2026-05-05 09:31 43.45365 74.44171 32078 ft 464 kts 257°
2026-05-05 09:31 43.43917 74.35577 32067 ft 462 kts 257°
2026-05-05 09:32 43.42464 74.26977 32059 ft 466 kts 256°
2026-05-05 09:32 43.41005 74.18330 32049 ft 466 kts 256°
2026-05-05 09:33 43.39461 74.09634 32045 ft 468 kts 256°
2026-05-05 09:33 43.37933 74.00983 32038 ft 466 kts 257°
2026-05-05 09:34 43.36460 73.92323 32032 ft 466 kts 257°
2026-05-05 09:34 43.34998 73.83715 32030 ft 464 kts 257°
2026-05-05 09:35 43.33445 73.75100 32031 ft 469 kts 256°
2026-05-05 09:35 43.31112 73.62093 32032 ft 469 kts 256°
2026-05-05 09:36 43.29592 73.53446 32034 ft 465 kts 256°
2026-05-05 09:36 43.28083 73.44860 32035 ft 463 kts 256°
2026-05-05 09:37 43.26581 73.36291 32036 ft 464 kts 256°
2026-05-05 09:37 43.25074 73.27728 32034 ft 464 kts 256°
2026-05-05 09:38 43.23470 73.19171 32039 ft 464 kts 255°
2026-05-05 09:38 43.21886 73.10631 32037 ft 462 kts 256°
2026-05-05 09:39 43.20380 73.02051 32043 ft 468 kts 256°
2026-05-05 09:39 43.18761 72.93428 32039 ft 466 kts 255°
2026-05-05 09:40 43.17136 72.84847 32036 ft 466 kts 255°
2026-05-05 09:40 43.15596 72.76286 32030 ft 465 kts 256°
2026-05-05 09:41 43.14045 72.67687 32045 ft 466 kts 256°
2026-05-05 09:41 43.12415 72.59119 32042 ft 466 kts 255°
2026-05-05 09:42 43.10801 72.50587 32054 ft 468 kts 256°
2026-05-05 09:42 43.09195 72.41948 32076 ft 467 kts 256°
2026-05-05 09:43 43.07605 72.33372 32068 ft 466 kts 256°
2026-05-05 09:43 43.05953 72.24865 32058 ft 467 kts 255°
2026-05-05 09:44 43.04310 72.16264 32048 ft 467 kts 256°
2026-05-05 09:44 43.02682 72.07712 32042 ft 468 kts 256°
2026-05-05 09:45 43.01046 71.99107 32037 ft 467 kts 256°
2026-05-05 09:45 42.99398 71.90483 32044 ft 468 kts 256°
2026-05-05 09:46 42.97752 71.81947 32065 ft 467 kts 255°
2026-05-05 09:46 42.96008 71.73451 32035 ft 466 kts 255°
2026-05-05 09:47 42.94340 71.64887 32045 ft 466 kts 256°
2026-05-05 09:47 42.92661 71.56332 32043 ft 467 kts 256°
2026-05-05 09:48 42.90968 71.47745 32028 ft 466 kts 256°
2026-05-05 09:48 42.89276 71.39177 32016 ft 466 kts 256°
2026-05-05 09:49 42.87561 71.30617 32024 ft 467 kts 256°
2026-05-05 09:49 42.85369 71.22217 32030 ft 469 kts 249°
2026-05-05 09:50 42.82889 71.14009 32023 ft 468 kts 249°
2026-05-05 09:50 42.80479 71.05776 32024 ft 469 kts 250°
2026-05-05 09:51 42.78086 70.97498 32034 ft 469 kts 250°
2026-05-05 09:51 42.75779 70.89718 32128 ft 469 kts 249°
2026-05-05 09:52 42.73288 70.81515 32169 ft 468 kts 250°
2026-05-05 09:52 42.70903 70.73309 32153 ft 467 kts 250°
2026-05-05 09:53 42.68447 70.65166 32160 ft 468 kts 249°
2026-05-05 09:53 42.65946 70.57001 32187 ft 468 kts 249°
2026-05-05 09:54 42.63515 70.48878 32153 ft 467 kts 250°
2026-05-05 09:54 42.60779 70.40963 32156 ft 469 kts 232°
2026-05-05 09:55 42.56080 70.34744 32156 ft 473 kts 225°
2026-05-05 09:55 42.51326 70.28563 32155 ft 471 kts 226°
2026-05-05 09:56 42.46653 70.22342 32143 ft 471 kts 226°
2026-05-05 09:56 42.41977 70.16132 32169 ft 471 kts 226°
2026-05-05 09:57 42.39658 70.13039 31798 ft 475 kts 226°
2026-05-05 09:57 42.37306 70.09911 31179 ft 469 kts 226°
2026-05-05 09:57 42.35014 70.06853 30627 ft 463 kts 227°
2026-05-05 09:57 42.32740 70.03744 29655 ft 459 kts 227°
2026-05-05 09:58 42.30540 70.00738 29104 ft 449 kts 227°
2026-05-05 09:58 42.28359 69.97781 28484 ft 448 kts 226°
2026-05-05 09:58 42.26152 69.94875 27839 ft 443 kts 226°
2026-05-05 09:58 42.23963 69.91994 27173 ft 442 kts 226°
2026-05-05 09:59 42.21775 69.89112 26341 ft 434 kts 226°
2026-05-05 09:59 42.19644 69.86298 25739 ft 428 kts 226°
2026-05-05 09:59 42.17566 69.83482 25262 ft 424 kts 227°
2026-05-05 09:59 42.15466 69.80643 24717 ft 424 kts 226°
2026-05-05 10:00 42.13356 69.77877 23879 ft 424 kts 226°
2026-05-05 10:00 42.11278 69.75166 23204 ft 413 kts 226°
2026-05-05 10:00 42.09243 69.72505 22527 ft 408 kts 226°
2026-05-05 10:00 42.07258 69.69843 21950 ft 407 kts 227°
2026-05-05 10:01 42.05271 69.67167 21203 ft 399 kts 226°
2026-05-05 10:01 42.03277 69.64562 20749 ft 396 kts 226°
2026-05-05 10:01 42.01321 69.61990 20235 ft 394 kts 226°
2026-05-05 10:01 41.99374 69.59431 19371 ft 395 kts 226°
2026-05-05 10:02 41.97450 69.56902 18801 ft 382 kts 226°
2026-05-05 10:02 41.95558 69.54433 18180 ft 381 kts 226°
2026-05-05 10:02 41.93690 69.51943 17485 ft 373 kts 227°
2026-05-05 10:02 41.91871 69.49492 17022 ft 370 kts 226°
2026-05-05 10:03 41.90015 69.47070 16285 ft 372 kts 226°
2026-05-05 10:03 41.88171 69.44668 15663 ft 363 kts 226°
2026-05-05 10:03 41.86253 69.42485 14834 ft 364 kts 210°
2026-05-05 10:03 41.83853 69.41681 14449 ft 360 kts 183°
2026-05-05 10:04 41.81349 69.41994 13796 ft 363 kts 175°
2026-05-05 10:04 41.78837 69.42454 13202 ft 358 kts 174°
2026-05-05 10:04 41.76406 69.42907 12758 ft 353 kts 174°
2026-05-05 10:04 41.74108 69.43327 12165 ft 351 kts 174°
2026-05-05 10:05 41.71696 69.43755 11616 ft 346 kts 174°
2026-05-05 10:05 41.69634 69.44115 11185 ft 346 kts 174°
2026-05-05 10:05 41.67715 69.44448 10735 ft 327 kts 174°
2026-05-05 10:05 41.65512 69.44830 9643 ft 321 kts 174°
2026-05-05 10:06 41.63314 69.45203 8536 ft 316 kts 174°
2026-05-05 10:06 41.61184 69.45559 7464 ft 312 kts 174°
2026-05-05 10:06 41.59052 69.45914 6390 ft 308 kts 173°
2026-05-05 10:06 41.56934 69.46300 5312 ft 305 kts 173°
2026-05-05 10:07 41.54864 69.46652 4295 ft 301 kts 174°
2026-05-05 10:07 41.52836 69.47019 3551 ft 288 kts 173°
2026-05-05 10:07 41.50946 69.47374 3516 ft 255 kts 173°
2026-05-05 10:07 41.49234 69.47699 3590 ft 244 kts 173°
2026-05-05 10:08 41.47557 69.48014 3674 ft 244 kts 173°
2026-05-05 10:08 41.45855 69.48336 3661 ft 241 kts 173°
2026-05-05 10:08 41.44191 69.48653 3656 ft 240 kts 173°
2026-05-05 10:08 41.42542 69.48968 3632 ft 236 kts 173°
2026-05-05 10:09 41.40929 69.49275 3622 ft 234 kts 173°
2026-05-05 10:09 41.39302 69.49586 3620 ft 230 kts 173°
2026-05-05 10:09 41.37724 69.49887 3615 ft 230 kts 173°
2026-05-05 10:09 41.36130 69.50186 3615 ft 225 kts 173°
2026-05-05 10:10 41.34587 69.50479 3622 ft 224 kts 173°
2026-05-05 10:10 41.33048 69.50752 3615 ft 221 kts 174°
2026-05-05 10:10 41.31519 69.51018 3612 ft 221 kts 174°
2026-05-05 10:10 41.30053 69.50748 3555 ft 212 kts 212°
2026-05-05 10:11 41.29186 69.49262 3555 ft 203 kts 251°
2026-05-05 10:11 41.28767 69.47487 3564 ft 197 kts 254°
2026-05-05 10:11 41.28388 69.45753 3548 ft 191 kts 253°
2026-05-05 10:11 41.28007 69.44074 3405 ft 188 kts 256°
2026-05-05 10:12 41.27709 69.42409 3169 ft 178 kts 257°
2026-05-05 10:12 41.27451 69.40840 3151 ft 172 kts 258°
2026-05-05 10:12 41.27213 69.39270 2955 ft 170 kts 259°
2026-05-05 10:12 41.26998 69.37753 2716 ft 164 kts 260°
2026-05-05 10:13 41.26800 69.36294 2494 ft 156 kts 261°
2026-05-05 10:13 41.26619 69.34899 2281 ft 149 kts 261°
2026-05-05 10:13 41.26452 69.33548 2015 ft 149 kts 262°
2026-05-05 10:13 41.26291 69.32179 1783 ft 150 kts 263°
2026-05-05 10:14 41.26141 69.30797 1534 ft 149 kts 262°
2026-05-05 10:14 41.25997 69.29480 1424 ft 135 kts 262°
2026-05-05 10:14 41.25926 69.28836 1424 ft 28 kts 260°
2026-05-05 10:14 41.25897 69.28574 1424 ft 29 kts 262°
2026-05-05 10:15 41.25867 69.28301 1424 ft 29 kts 261°
2026-05-05 10:15 41.25835 69.28025 1424 ft 30 kts 262°
2026-05-05 10:15 41.25808 69.27746 1424 ft 30 kts 262°
2026-05-05 10:15 41.25802 69.27558 1424 ft 15 kts 294°
2026-05-05 10:16 41.25876 69.27457 1424 ft 14 kts 319°
2026-05-05 10:16 41.25954 69.27368 1424 ft 14 kts 318°
2026-05-05 10:16 41.26030 69.27283 1424 ft 14 kts 322°
2026-05-05 10:16 41.26031 69.27176 1424 ft 13 kts 243°
2026-05-05 10:17 41.25996 69.27058 1424 ft 12 kts 270°
2026-05-05 10:17 41.26056 69.26986 1424 ft 11 kts 332°
2026-05-05 10:17 41.26120 69.26925 1424 ft 10 kts 309°
2026-05-05 10:17 41.26166 69.26891 1424 ft 2 kts 355°
2026-05-05 10:18 41.26181 69.26889 1424 ft 2 kts 356°
2026-05-05 10:18 41.26189 69.26889 1424 ft 0 kts 356°